SCP
0 0 0 0 0 0 0 0 0 0 0 0 0 0 0 0 0 0 0 0 0 0 0 0 0 0 0 0 0 0 0 0 0 0 0 0 0 0 0 0 0 0 0
0 0 0 0 0 0 0 0 0 0 0 0 0 0 0 0 0 0 0 0 0 0 0 0 0 0 0 0 0 0 0 0 0 0 0 0 0 0 0 0 0 0 0
0 0 0 0 0 0 0 0 0 0 0 0 0 0 0 0 0 0 0 0 0 0 0 0 0 0 0 0 0 0 0 0 0 0 0 0 0 0 0 0 0 0 0
0 0 0 0 0 0 0 0 0 0 0 0 0 0 0 0 0 0 0 0 0 0 0 0 0 0 0 0 0 0 0 0 0 0 0 0 0 0 0 0 0 0 0
0 0 0 0 0 0 0 0 0 0 0 0 0 0 0 0 0 0 0 0 0 0 0 0 0 0 0 0 0 0 0 0 0 0 0 0 0 0 0 0 0 0 0
-0 -0 0 0 0 0 0 0 0 0 0 0 0 0 0 0 0 0 0 0 0 0 0 0 0 0 0 0 0 0 0 0 0 0 0 0 0 0 0 0 0 0 0
-0 -0 0 0 0 0 0 0 0 0 0 0 0 0 0 0 0 0 0 0 0 0 0 0 0 0 0 0 0 0 0 0 0 0 0 0 0 0 0 0 0 0 0
-0 -0 -0 0 0 0 0 0 0 0 0 0 0 0 0 0 0 0 0 0 0 0 0 0 0 0 0 0 0 0 0 0 0 0 0 0 0 0 0 0 0 0 0
0 -0 -0 0 0 0 0 0 0 0 0 0 0 0 0 0 0 0 0 0 0 0 0 0 0 0 0 0 0 0 0 0 0 0 0 0 0 0 0 0 0 0 0
0 0 0 0 0 0 0 0 0 0 0 0 0 0 0 0 0 0 0 0 0 0 0 0 0 0 0 0 0 0 0 0 0 0 0 0 0 0 0 0 0 0 0
0 0 0 0 0 0 0 0 0 0 0 0 0 0 0 0 0 0 0 0 0 0 0 0 0 0 0 0 0 0 0 0 0 0 0 0 0 0 0 0 0 0 0
0 0 0 0 0 0 0 0 0 0 0 0 0 0 0 0 0 0 0 0 0 0 0 0 0 0 0 0 0 0 0 0 0 0 0 0 0 0 0 0 0 0 0
0 0 0 0 0 0 0 0 0 0 0 0 0 0 0 0 0 0 0 0 0 0 0 0 0 0 0 0 0 0 0 0 0 0 0 0 0 0 0 0 0 0 0
0 0 0 0 0 0 0 0 0 0 0 0 0 0 0 0 0 0 0 0 0 0 0 0 0 0 0 0 0 0 0 0 0 0 0 0 0 0 0 0 0 0 0
0 0 0 0 0 0 0 0 0 0 0 0 0 0 0 0 0 0 0 0 0 0 0 0 0 0 0 0 0 0 0 0 0 0 0 0 0 0 0 0 0 0 0
0 0 0 0 0 0 0 0 0 0 0 0 0 0 0 0 0 0 0 0 0 0 0 0 0 0 0 0 0 0 0 0 0 0 0 0 0 0 0 0 0 0 0
0 0 0 0 0 0 0 0 0 0 0 0 0 0 0 0 0 0 0 0 0 0 0 0 0 0 0 0 0 0 0 0 0 0 0 0 0 0 0 0 0 0 0
0 0 0 0 0 0 0 0 0 0 0 0 0 0 0 0 0 0 0 0 0 0 0 0 0 0 0 0 0 0 0 0 0 0 0 0 0 0 0 0 0 0 0
0 0 0 0 0 0 0 0 0 0 0 0 0 0 0 0 0 0 0 0 0 0 0 0 0 0 0 0 0 0 0 0 0 0 0 0 0 0 0 0 0 0 0
0 0 0 0 0 0 0 0 0 0 0 0 0 0 0 0 0 0 0 0 0 0 0 0 0 0 0 0 0 0 0 0 0 0 0 0 0 0 0 0 0 0 0
0 0 0 0 0 0 0 0 0 0 0 0 0 0 0 0 0 0 0 0 0 0 0 0 0 0 0 0 0 0 0 0 0 0 0 0 0 0 0 0 0 0 0
0 0 0 0 0 0 0 0 0 0 0 0 0 0 0 0 0 0 0 0 0 0 0 0 0 0 0 0 0 0 0 0 0 0 0 0 0 0 0 0 0 0 0
0 0 0 0 0 0 0 0 0 0 0 0 0 0 0 0 0 0 0 0 0 0 0 0 0 0 0 0 0 0 0 0 0 0 0 0 0 0 0 0 0 0 0
0 0 0 0 0 0 0 0 0 0 0 0 0 0 0 0 0 0 0 0 0 0 0 0 0 0 0 0 0 0 0 0 0 0 0 0 0 0 0 0 0 0 0
0 0 0 0 0 0 0 0 0 0 0 0 0 0 0 0 0 0 0 0 0 0 0 0 0 0 0 0 0 0 0 0 0 0 0 0 0 0 0 0 0 0 0
0 0 0 0 0 0 0 0 0 0 0 0 0 0 0 0 0 0 0 0 0 0 0 0 0 0 0 0 0 0 0 0 0 0 0 0 0 0 0 0 0 0 0
Wind_Speed
3 3 4 4 5 6 6 6 6 7 7 8 8 9 9 10 10 10 10 10 10 10 10 10 10 10 11 10 10 10 10 10 10 9 9 9 9 9 10 10 9 6 10
2 2 3 4 6 6 6 7 7 7 8 8 9 9 9 9 9 10 10 10 10 10 10 10 10 10 11 11 11 11 11 11 11 10 9 8 9 9 9 9 9 6 9
1 2 2 4 5 7 7 7 8 8 8 8 8 8 9 9 9 10 10 10 10 10 10 10 10 10 11 11 11 11 11 12 11 11 9 4 5 9 9 9 9 9 9
1 1 2 4 5 6 7 7 7 8 8 8 8 8 8 8 9 9 10 9 10 10 10 10 10 10 11 11 11 11 11 12 11 10 6 4 5 9 9 9 9 9 9
1 2 2 4 5 5 6 7 7 7 7 7 7 7 8 8 9 9 10 9 10 10 10 10 11 11 10 11 11 11 11 11 12 9 6 5 4 9 9 9 9 9 8
2 2 2 4 5 5 6 7 7 7 7 7 7 7 8 8 9 9 10 10 10 10 10 11 11 11 11 10 10 11 12 12 9 6 5 5 4 9 10 10 9 9 9
1 2 2 4 4 5 5 6 7 7 7 7 7 7 7 8 8 9 9 9 10 10 10 11 12 11 11 10 10 11 12 12 7 5 5 5 6 10 10 10 9 10 9
1 2 2 4 4 5 5 6 6 7 6 6 7 7 7 8 8 9 9 9 9 10 10 11 12 12 12 12 12 12 12 10 7 6 5 4 9 11 10 10 10 10 10
2 2 3 3 4 5 5 5 6 6 6 6 6 6 7 7 8 8 8 9 9 10 10 11 11 12 13 13 13 12 12 12 6 4 5 4 9 10 10 10 10 10 9
2 2 2 3 3 3 3 5 6 6 7 7 6 6 7 7 7 8 7 8 9 10 10 11 11 12 12 12 12 12 11 9 5 5 3 5 10 10 10 10 10 10 9
1 1 2 2 3 3 2 4 5 6 7 7 6 7 6 4 4 4 6 8 9 9 10 10 10 11 12 12 12 12 9 4 5 3 3 7 9 9 9 10 9 9 9
1 1 0 1 1 2 2 3 3 3 4 4 4 4 3 3 3 5 8 9 10 10 10 11 11 11 8 5 7 9 4 5 4 3 4 9 9 9 10 10 9 9 9
2 1 0 0 0 1 1 2 2 2 2 3 4 4 3 3 3 4 3 4 5 7 5 7 7 5 5 4 4 4 4 4 3 3 5 10 10 10 10 10 9 9 9
1 1 1 1 1 1 1 1 1 1 2 2 2 3 3 2 3 3 3 3 3 3 4 4 4 5 5 5 5 5 5 4 4 3 4 10 10 9 9 9 9 9 9
2 1 1 2 2 1 1 1 2 1 1 1 2 2 3 2 2 3 2 3 3 3 3 4 4 5 5 5 5 5 6 5 5 5 4 9 10 9 9 9 8 8 8
2 2 2 2 2 2 1 1 1 1 1 2 2 2 2 2 2 2 2 3 3 3 3 3 4 4 4 4 5 5 5 5 5 5 4 6 9 9 9 8 8 8 9
3 2 2 2 2 2 2 1 1 1 2 2 1 2 2 2 3 3 3 2 2 2 4 4 4 4 4 4 5 5 4 5 5 5 5 4 5 8 10 9 9 9 10
3 2 2 3 3 3 2 2 1 2 2 2 1 1 2 3 3 3 3 2 2 3 3 3 3 4 4 4 3 4 4 4 5 5 5 5 4 4 6 9 9 9 9
3 3 3 3 3 3 2 2 2 2 2 2 2 2 2 3 3 3 3 2 3 3 3 3 3 3 3 3 3 4 4 4 4 4 4 5 4 4 4 7 9 9 8
3 3 3 3 3 3 2 2 2 3 2 2 2 2 2 3 3 3 3 3 3 3 3 3 4 3 3 3 4 4 4 3 3 3 4 4 4 4 5 5 4 6 9
3 3 3 3 2 2 2 1 1 1 1 1 1 2 2 3 3 3 3 3 3 3 3 3 3 4 2 2 3 3 3 4 4 3 3 3 4 4 4 4 4 4 4
4 3 3 3 3 3 2 1 1 1 1 0 1 2 2 2 2 3 3 3 3 3 3 3 3 2 1 2 2 2 2 3 3 3 3 2 3 2 3 4 4 4 3
4 4 4 3 3 3 2 2 2 2 2 2 2 2 1 2 2 2 3 3 3 2 2 2 2 3 2 1 1 3 2 1 1 2 3 3 2 2 2 2 3 3 3
5 4 3 3 3 3 3 3 3 2 1 1 0 0 1 2 2 2 2 3 2 2 2 1 1 1 2 1 1 1 2 3 2 0 2 3 3 3 2 2 2 3 3
4 4 3 3 3 2 3 4 4 2 1 1 1 1 1 1 1 2 2 2 2 2 2 2 2 2 2 2 1 1 2 2 2 2 0 2 2 2 2 2 1 2 2
3 3 3 4 3 3 3 3 4 4 3 2 1 1 1 1 1 1 2 2 2 2 2 2 2 2 2 2 1 1 2 2 2 2 2 0 1 1 2 2 2 1 1
Wind_Direction
302 304 330 18 32 40 44 56 68 68 68 71 76 76 76 75 75 72 73 75 77 79 78 81 82 86 89 91 94 96 93 92 92 91 93 98 98 95 96 97 97 98 103
282 319 1 32 41 46 48 57 67 69 67 70 75 76 76 76 76 76 76 75 75 77 77 80 84 85 87 90 92 92 92 92 90 87 86 90 96 95 95 98 100 101 103
16 351 356 41 49 50 53 59 65 66 67 69 74 74 73 73 73 74 74 74 75 77 79 81 84 86 87 87 89 89 88 88 88 85 78 65 86 94 93 96 100 101 102
50 9 357 48 56 57 58 65 67 69 68 70 74 74 74 72 73 74 72 70 74 75 77 80 84 84 86 87 88 88 88 87 86 81 67 61 73 90 91 92 97 100 100
44 10 348 56 64 63 61 64 67 71 69 70 72 75 75 74 74 76 76 71 72 73 74 77 82 82 83 86 89 90 91 90 84 72 61 60 68 87 88 87 89 93 93
42 12 3 69 70 68 62 64 68 69 66 66 68 74 76 76 76 74 76 75 73 73 73 75 79 80 81 85 93 93 92 89 78 65 59 60 70 86 87 82 82 84 86
49 15 11 62 68 68 66 65 67 66 64 63 65 71 75 76 76 76 73 73 73 72 73 73 74 78 79 80 92 96 91 88 77 67 62 60 72 82 85 83 81 82 85
76 36 29 41 54 58 62 62 60 61 61 62 64 67 71 75 74 75 74 72 71 72 73 72 71 72 74 77 87 92 90 86 76 72 66 62 79 80 80 80 79 80 81
67 52 27 17 23 33 42 56 56 54 54 57 64 66 70 73 71 69 69 71 72 73 74 74 72 72 72 75 82 85 87 81 67 63 72 66 82 83 79 77 76 76 77
59 47 28 19 19 18 16 38 50 51 51 52 59 66 68 64 63 61 58 68 73 76 77 76 75 73 72 75 76 78 79 72 56 55 54 74 81 83 82 81 77 73 73
61 24 22 22 15 15 17 35 40 43 41 43 46 60 59 44 41 47 53 68 73 78 79 79 78 73 71 70 70 71 67 53 51 45 52 75 78 81 83 83 80 76 73
208 276 24 17 7 12 19 37 32 36 36 39 42 47 49 47 43 53 50 63 71 74 74 74 73 69 65 55 61 64 53 51 49 38 64 78 78 78 82 83 81 77 73
204 205 161 188 28 35 30 45 40 39 40 41 48 55 58 52 44 45 41 41 48 59 58 63 62 58 61 60 58 56 53 49 43 38 58 75 77 80 79 79 80 77 73
167 203 181 132 98 65 60 58 58 52 47 43 45 61 69 62 52 50 48 41 47 52 64 65 66 63 64 62 63 62 56 50 44 36 50 68 71 74 77 77 76 75 74
175 186 173 143 136 117 81 61 70 63 67 57 50 59 78 81 72 63 58 55 55 60 68 72 72 70 65 62 63 65 58 51 45 43 35 55 62 65 67 71 74 74 76
186 181 160 145 142 120 101 81 74 64 69 68 61 59 79 91 92 83 72 65 59 64 73 77 78 77 67 64 62 61 59 51 45 43 36 38 47 54 58 62 68 69 73
183 168 153 144 119 112 105 88 74 67 76 69 55 60 81 91 98 98 88 74 66 75 83 83 75 74 74 65 57 55 55 50 46 42 38 34 32 41 49 56 63 69 69
157 145 146 133 113 105 99 88 72 70 76 69 55 59 79 89 99 99 94 84 84 84 86 89 82 80 71 67 60 49 47 47 43 42 41 37 33 31 36 50 59 64 66
164 153 135 114 117 110 95 78 69 66 65 58 54 58 79 88 93 97 95 90 90 86 81 95 79 87 87 77 71 55 42 42 36 43 42 38 36 36 34 40 47 51 59
155 147 134 120 111 98 80 68 58 54 45 44 48 59 79 86 94 96 95 93 94 91 80 84 88 76 82 85 79 61 45 42 40 39 39 36 36 40 40 38 34 33 44
142 141 141 133 126 112 94 90 81 57 26 24 28 61 77 87 97 98 98 91 91 99 105 107 102 89 70 79 81 55 32 39 40 31 35 38 36 36 42 40 36 30 26
164 163 160 159 152 151 143 136 127 117 85 23 17 49 71 90 107 114 111 107 103 104 101 103 107 100 68 55 103 95 39 13 16 22 25 36 29 33 44 43 41 36 27
174 180 177 175 167 162 138 109 82 59 41 30 21 21 27 74 94 111 118 116 115 119 131 130 121 122 125 52 68 124 130 178 338 352 16 28 37 41 35 39 42 34 32
190 182 174 170 164 162 145 140 140 142 152 208 216 359 28 65 89 106 121 125 123 124 133 142 119 119 126 122 63 58 111 143 139 359 355 15 35 41 34 40 37 34 32
179 171 170 164 166 161 154 158 151 149 164 149 98 83 51 44 70 104 126 131 131 130 135 124 109 107 111 129 135 126 91 73 95 134 321 350 19 26 32 37 35 29 28
162 160 160 163 177 169 159 161 161 163 156 138 128 118 68 41 45 91 124 127 133 134 138 137 122 112 109 114 119 126 140 143 158 141 145 122 6 1 28 29 28 18 21